Weather History for Providence, RI

Change the Weather History Date:

Saturday, February 2, 2013

  Actual Average Record
Temperature  
Mean Temperature 25 °F 30 °F  
Max Temperature 31 °F 38 °F 57 °F (1973)
Min Temperature 19 °F 22 °F -6 °F (1961)
Degree Days  
Heating Degree Days 40 35  
Month to date heating degree days 78 70  
Since 1 July heating degree days 2953 3207  
Cooling Degree Days 0 0  
Month to date cooling degree days 0 0  
Year to date cooling degree days 0 0  
Moisture  
Dew Point 8 °F    
Average Humidity 46    
Maximum Humidity 56    
Minimum Humidity 36    
Precipitation  
Precipitation 0.00 in 0.12 in 2.16 in (1973)
Month to date precipitation 0.00 0.23  
Year to date precipitation 1.93 4.09  
Snow  
Snow 0.00 in 0.40 in 6.50 in (1934)
Month to date snowfall 0.0 0.7  
Since 1 July snowfall 17.1 19.9  
Snow Depth 0.00 in    
Sea Level Pressure  
Sea Level Pressure 30.16 in    
Wind  
Wind Speed 10 mph (WSW)    
Max Wind Speed 18 mph    
Max Gust Speed 24 mph    
Visibility 10 miles    
Events      
T = Trace of Precipitation, MM = Missing Value Source: NWS Daily Summary

Daily Weather History Graph

Daily Weather History Graph

Search for Another Location

Airport:

Trip Planner

Search our weather history database for the weather conditions in past years. The results will help you decide how hot, cold, wet, or windy it might be!

Date:

Astronomy

Feb. 02, 2013 Rise Set
Actual Time 6:56 AM EST 5:02 PM EST
Civil Twilight 6:27 AM EST 5:32 PM EST
Nautical Twilight 5:54 AM EST 6:05 PM EST
Astronomical Twilight 5:21 AM EST 6:38 PM EST
Moon No Moon Rise 9:58 AM EST (2/2)
Length of Visible Light 11h 04m
Length of Day
10h 06m
Waning Gibbous, 60% of the Moon is Illuminated
Feb 2
Waning Gibbous
Feb 3
Last Quarter
Feb 10
New
Feb 17
First Quarter
Feb 25
Full

Hourly Weather History & Observations

Time (EST) Temp. Windchill Dew Point Humidity Pressure Visibility Wind Dir Wind Speed Gust Speed Precip Events Conditions
12:51 AM 21.0 °F 9.3 °F 5.0 °F 50% 30.14 in 10.0 mi West 11.5 mph - N/A   Clear
1:51 AM 21.0 °F 9.9 °F 5.0 °F 50% 30.15 in 10.0 mi West 10.4 mph - N/A   Clear
2:51 AM 21.0 °F 9.9 °F 3.9 °F 48% 30.16 in 10.0 mi West 10.4 mph 19.6 mph N/A   Clear
3:51 AM 21.0 °F 8.6 °F 5.0 °F 50% 30.18 in 10.0 mi WNW 12.7 mph 20.7 mph N/A   Clear
4:51 AM 19.9 °F 10.1 °F 3.9 °F 50% 30.20 in 10.0 mi West 8.1 mph - N/A   Clear
5:51 AM 19.9 °F 11.1 °F 5.0 °F 52% 30.22 in 10.0 mi West 6.9 mph - N/A   Clear
6:51 AM 19.0 °F 12.3 °F 6.1 °F 57% 30.24 in 10.0 mi West 4.6 mph - N/A   Partly Cloudy
7:51 AM 19.9 °F 12.1 °F 6.1 °F 55% 30.26 in 10.0 mi West 5.8 mph - N/A   Scattered Clouds
8:51 AM 23.0 °F 13.9 °F 6.1 °F 48% 30.27 in 10.0 mi West 8.1 mph - N/A   Scattered Clouds
9:51 AM 25.0 °F 14.8 °F 5.0 °F 43% 30.27 in 10.0 mi West 10.4 mph - N/A   Scattered Clouds
10:51 AM 27.0 °F 17.3 °F 6.1 °F 41% 30.26 in 10.0 mi SW 10.4 mph - N/A   Scattered Clouds
11:51 AM 28.0 °F 18.6 °F 6.1 °F 39% 30.22 in 10.0 mi SW 10.4 mph - N/A   Mostly Cloudy
12:51 PM 28.9 °F 19.8 °F 7.0 °F 40% 30.18 in 10.0 mi South 10.4 mph 18.4 mph N/A   Mostly Cloudy
1:51 PM 30.0 °F 20.5 °F 8.1 °F 40% 30.14 in 10.0 mi SW 11.5 mph 20.7 mph N/A   Scattered Clouds
2:51 PM 30.0 °F 20.5 °F 7.0 °F 38% 30.13 in 10.0 mi SW 11.5 mph - N/A   Mostly Cloudy
3:51 PM 28.9 °F 20.4 °F 7.0 °F 40% 30.11 in 10.0 mi SW 9.2 mph - N/A   Mostly Cloudy
4:51 PM 28.0 °F 16.5 °F 8.1 °F 43% 30.10 in 10.0 mi SW 15.0 mph 20.7 mph N/A   Mostly Cloudy
5:51 PM 27.0 °F 17.3 °F 10.9 °F 51% 30.10 in 10.0 mi SSW 10.4 mph - N/A   Mostly Cloudy
6:51 PM 27.0 °F 19.5 °F 12.0 °F 53% 30.09 in 10.0 mi SSW 6.9 mph - N/A   Mostly Cloudy
7:51 PM 28.4 °F 19.7 °F 12.2 °F 51% 30.08 in 10.0 mi SW 9.2 mph - N/A   Mostly Cloudy
8:51 PM 28.0 °F 20.8 °F 12.9 °F 53% 30.07 in 10.0 mi SW 6.9 mph - N/A   Mostly Cloudy
9:51 PM 28.0 °F 21.7 °F 14.0 °F 56% 30.07 in 10.0 mi SW 5.8 mph - N/A   Overcast
10:51 PM 28.0 °F 16.5 °F 14.0 °F 56% 30.07 in 10.0 mi WSW 15.0 mph - N/A   Overcast
11:51 PM 26.1 °F 18.4 °F 15.1 °F 63% 30.08 in 10.0 mi West 6.9 mph - N/A   Overcast